Location: Vancouver
(49.2500°N, 123.1330°W)
Time: 13:43:09
(UTC-07:00)

Cosmos 2333 Rocket - Visible Passes

Search period start: 23 May 2017 00:00
Search period end: 02 June 2017 00:00
Orbit: 837 x 864 km, 70.8° (Epoch: 22 May)

Date Brightness Start Highest point End Pass type
(mag) Time Alt. Az. Time Alt. Az. Time Alt. Az.
23 May 4.9 00:32:52 10° N 00:35:44 14° NNE 00:38:34 10° ENE visible
23 May 3.3 02:16:05 10° NNW 02:21:35 44° NE 02:27:02 10° SE visible
23 May 2.8 04:00:35 10° NW 04:05:47 37° WSW 04:10:56 10° S visible
24 May 4.9 00:20:33 10° N 00:23:24 14° NNE 00:26:15 10° ENE visible
24 May 3.3 02:03:46 10° NNW 02:09:17 44° NE 02:14:43 10° SE visible
24 May 2.8 03:48:16 10° NW 03:53:28 37° WSW 03:58:37 10° S visible
25 May 4.9 00:08:14 10° N 00:11:05 14° NNE 00:13:55 10° ENE visible
25 May 3.2 01:51:27 10° NNW 01:56:57 44° NE 02:02:23 10° SE visible
25 May 2.8 03:35:56 10° NW 03:41:09 37° WSW 03:45:57 12° S visible
25 May 4.8 23:55:55 10° N 23:58:45 14° NNE 00:01:35 10° ENE visible
26 May 3.2 01:39:08 10° NNW 01:44:38 44° NE 01:50:03 10° SE visible
26 May 2.8 03:23:37 10° NW 03:28:49 37° WSW 03:32:52 15° SSW visible
26 May 4.8 23:43:36 10° N 23:46:25 14° NNE 23:49:15 10° ENE visible
27 May 3.2 01:26:48 10° NNW 01:32:18 44° NE 01:37:44 10° SE visible
27 May 2.8 03:11:17 10° NW 03:16:30 37° WSW 03:19:59 19° SSW visible
27 May 4.8 23:31:16 10° N 23:34:06 14° NNE 23:36:55 10° ENE visible
28 May 3.2 01:14:29 10° NNW 01:19:59 44° NE 01:25:16 11° SE visible
28 May 2.8 02:58:58 10° NW 03:04:10 37° WSW 03:07:13 21° SSW visible
28 May 4.7 23:18:57 10° N 23:21:47 14° NNE 23:24:35 10° ENE visible
29 May 3.2 01:02:10 10° NNW 01:07:39 44° NE 01:12:36 12° ESE visible
29 May 2.9 02:46:38 10° NW 02:51:51 37° WSW 02:54:33 24° SSW visible
29 May 4.7 23:06:38 10° N 23:09:27 14° NNE 23:12:15 10° ENE visible
30 May 3.1 00:49:50 10° NNW 00:55:19 44° NE 01:00:01 14° ESE visible
30 May 2.9 02:34:19 10° NW 02:39:32 37° WSW 02:41:58 25° SSW visible
30 May 4.7 22:54:18 10° N 22:57:07 14° NNE 22:59:56 10° ENE visible
31 May 3.1 00:37:31 10° NNW 00:43:00 44° NE 00:47:30 15° ESE visible
31 May 2.9 02:21:59 10° NW 02:27:12 37° WSW 02:29:28 27° SSW visible
31 May 4.6 22:41:59 10° N 22:44:48 14° NNE 22:47:35 10° ENE visible
01 Jun 3.1 00:25:11 10° NNW 00:30:40 44° NE 00:35:03 15° ESE visible
01 Jun 2.9 02:09:40 10° NW 02:14:52 37° WSW 02:17:01 27° SSW visible
01 Jun 4.6 22:29:40 10° N 22:32:28 14° NNE 22:35:16 10° ENE visible
